Time,TemperatureF,DewpointF,PressureIn,WindDirection,WindDirectionDegrees,WindSpeedMPH,WindSpeedGustMPH,Humidity,HourlyPrecipIn,Conditions,Clouds,dailyrainin,SoftwareType,DateUTC
2013-01-08 00:03:00,27.0,26.0,30.48,SSW,205,6.0,10.0,94,0.00,,,-99.99,,2013-01-08 05:03:00,
2013-01-08 00:12:00,27.0,26.0,30.48,SSW,205,6.0,10.0,94,0.00,,,-99.99,,2013-01-08 05:12:00,
2013-01-08 00:22:00,26.0,25.0,30.49,SW,221,7.0,9.0,94,0.00,,,-99.99,,2013-01-08 05:22:00,
2013-01-08 00:33:00,26.0,25.0,30.49,SSW,205,4.0,10.0,95,0.00,,,-99.99,,2013-01-08 05:33:00,
2013-01-08 00:42:00,26.0,25.0,30.49,SSW,205,4.0,10.0,95,0.00,,,-99.99,,2013-01-08 05:42:00,
2013-01-08 00:53:00,27.0,26.0,30.48,SSW,212,7.0,9.0,95,0.00,,,-99.99,,2013-01-08 05:53:00,
2013-01-08 01:02:00,27.0,26.0,30.48,SW,232,3.0,9.0,94,0.00,,,-99.99,,2013-01-08 06:02:00,
2013-01-08 01:12:00,27.0,26.0,30.48,SW,232,3.0,9.0,94,0.00,,,-99.99,,2013-01-08 06:12:00,
2013-01-08 01:22:00,26.0,25.0,30.47,SSW,208,10.0,12.0,95,0.00,,,-99.99,,2013-01-08 06:22:00,
2013-01-08 01:33:00,26.0,25.0,30.47,SSW,212,3.0,9.0,95,0.00,,,-99.99,,2013-01-08 06:33:00,
2013-01-08 01:42:00,26.0,25.0,30.47,SSW,212,3.0,9.0,95,0.00,,,-99.99,,2013-01-08 06:42:00,
2013-01-08 01:53:00,26.0,25.0,30.46,South,177,6.0,12.0,96,0.00,,,-99.99,,2013-01-08 06:53:00,
2013-01-08 02:02:00,26.0,25.0,30.46,West,267,6.0,11.0,96,0.00,,,-99.99,,2013-01-08 07:02:00,
2013-01-08 02:12:00,26.0,25.0,30.46,West,267,6.0,11.0,96,0.00,,,-99.99,,2013-01-08 07:12:00,
2013-01-08 02:22:00,26.0,25.0,30.47,SW,217,6.0,7.0,96,0.00,,,-99.99,,2013-01-08 07:22:00,
2013-01-08 02:32:00,26.0,25.0,30.47,West,269,5.0,9.0,97,0.00,,,-99.99,,2013-01-08 07:32:00,
2013-01-08 02:42:00,26.0,25.0,30.47,West,269,5.0,9.0,97,0.00,,,-99.99,,2013-01-08 07:42:00,
2013-01-08 02:52:00,26.0,25.0,30.47,SW,233,4.0,10.0,97,0.00,,,-99.99,,2013-01-08 07:52:00,
2013-01-08 03:02:00,26.0,25.0,30.47,SW,218,0.0,8.0,97,0.00,,,-99.99,,2013-01-08 08:02:00,
2013-01-08 03:12:00,26.0,25.0,30.47,SW,218,0.0,8.0,97,0.00,,,-99.99,,2013-01-08 08:12:00,
2013-01-08 03:22:00,26.0,25.0,30.47,WSW,253,1.0,4.0,97,0.00,,,-99.99,,2013-01-08 08:22:00,
2013-01-08 03:32:00,26.0,25.0,30.47,NW,308,3.0,8.0,97,0.00,,,-99.99,,2013-01-08 08:32:00,
2013-01-08 03:42:00,26.0,25.0,30.47,NW,308,3.0,8.0,97,0.00,,,-99.99,,2013-01-08 08:42:00,
2013-01-08 03:53:00,26.0,25.0,30.47,WNW,297,3.0,8.0,97,0.00,,,-99.99,,2013-01-08 08:53:00,
2013-01-08 04:02:00,26.0,26.0,30.47,West,271,9.0,10.0,98,0.00,,,-99.99,,2013-01-08 09:02:00,
2013-01-08 04:12:00,28.0,24.0,30.46,SW,229,7.0,12.0,85,0.00,,,-99.99,,2013-01-08 09:12:00,
2013-01-08 04:22:00,28.0,24.0,30.46,SW,229,7.0,12.0,85,0.00,,,-99.99,,2013-01-08 09:22:00,
2013-01-08 04:32:00,30.0,23.0,30.46,West,273,7.0,14.0,76,0.00,,,-99.99,,2013-01-08 09:32:00,
2013-01-08 04:42:00,30.0,23.0,30.46,West,273,7.0,14.0,76,0.00,,,-99.99,,2013-01-08 09:42:00,
2013-01-08 04:52:00,31.0,23.0,30.46,WSW,250,4.0,12.0,71,0.00,,,-99.99,,2013-01-08 09:52:00,
2013-01-08 05:02:00,31.0,22.0,30.46,West,259,8.0,11.0,69,0.00,,,-99.99,,2013-01-08 10:02:00,
2013-01-08 05:12:00,31.0,22.0,30.46,West,259,8.0,11.0,69,0.00,,,-99.99,,2013-01-08 10:12:00,
2013-01-08 05:22:00,31.0,22.0,30.45,West,271,3.0,10.0,68,0.00,,,-99.99,,2013-01-08 10:22:00,
2013-01-08 05:32:00,31.0,21.0,30.46,West,270,3.0,8.0,67,0.00,,,-99.99,,2013-01-08 10:32:00,
2013-01-08 05:42:00,31.0,21.0,30.46,West,270,3.0,8.0,67,0.00,,,-99.99,,2013-01-08 10:42:00,
2013-01-08 05:52:00,30.0,21.0,30.46,West,276,4.0,10.0,68,0.00,,,-99.99,,2013-01-08 10:52:00,
2013-01-08 06:02:00,30.0,21.0,30.46,WNW,283,6.0,10.0,69,0.00,,,-99.99,,2013-01-08 11:02:00,
2013-01-08 06:12:00,30.0,21.0,30.47,WSW,246,5.0,8.0,68,0.00,,,-99.99,,2013-01-08 11:12:00,
2013-01-08 06:22:00,30.0,21.0,30.47,WSW,246,5.0,8.0,68,0.00,,,-99.99,,2013-01-08 11:22:00,
2013-01-08 06:33:00,30.0,20.0,30.47,WSW,252,7.0,7.0,67,0.00,,,-99.99,,2013-01-08 11:33:00,
2013-01-08 06:42:00,30.0,20.0,30.47,WSW,252,7.0,7.0,67,0.00,,,-99.99,,2013-01-08 11:42:00,
2013-01-08 06:53:00,30.0,20.0,30.47,WNW,295,5.0,9.0,66,0.00,,,-99.99,,2013-01-08 11:53:00,
2013-01-08 07:03:00,30.0,20.0,30.48,WNW,283,7.0,8.0,67,0.00,,,-99.99,,2013-01-08 12:03:00,
2013-01-08 07:12:00,30.0,20.0,30.48,WNW,283,7.0,8.0,67,0.00,,,-99.99,,2013-01-08 12:12:00,
2013-01-08 07:22:00,30.0,21.0,30.48,SW,229,7.0,9.0,68,0.00,,,-99.99,,2013-01-08 12:22:00,
2013-01-08 07:33:00,30.0,21.0,30.48,SW,218,6.0,6.0,69,0.00,,,-99.99,,2013-01-08 12:33:00,
2013-01-08 07:42:00,30.0,21.0,30.48,SW,218,6.0,6.0,69,0.00,,,-99.99,,2013-01-08 12:42:00,
2013-01-08 07:53:00,29.0,20.0,30.48,SW,224,3.0,6.0,69,0.00,,,-99.99,,2013-01-08 12:53:00,
2013-01-08 08:03:00,29.0,20.0,30.48,WNW,290,0.0,6.0,70,0.00,,,-99.99,,2013-01-08 13:03:00,
2013-01-08 08:12:00,29.0,20.0,30.48,WNW,290,0.0,6.0,70,0.00,,,-99.99,,2013-01-08 13:12:00,
2013-01-08 08:22:00,30.0,21.0,30.48,WSW,242,4.0,5.0,68,0.00,,,-99.99,,2013-01-08 13:22:00,
2013-01-08 08:33:00,30.0,21.0,30.48,WSW,246,0.0,6.0,68,0.00,,,-99.99,,2013-01-08 13:33:00,
2013-01-08 08:43:00,30.0,21.0,30.48,WSW,246,0.0,6.0,68,0.00,,,-99.99,,2013-01-08 13:43:00,
2013-01-08 08:53:00,31.0,22.0,30.50,South,190,5.0,7.0,69,0.00,,,-99.99,,2013-01-08 13:53:00,
2013-01-08 09:02:00,31.0,23.0,30.51,SW,215,5.0,7.0,72,0.00,,,-99.99,,2013-01-08 14:02:00,
2013-01-08 09:12:00,31.0,23.0,30.51,SW,215,5.0,7.0,72,0.00,,,-99.99,,2013-01-08 14:12:00,
2013-01-08 09:23:00,32.0,24.0,30.52,NW,314,0.0,8.0,72,0.00,,,-99.99,,2013-01-08 14:23:00,
2013-01-08 09:33:00,32.0,24.0,30.52,WSW,250,6.0,8.0,71,0.00,,,-99.99,,2013-01-08 14:33:00,
2013-01-08 09:43:00,32.0,24.0,30.52,WSW,250,6.0,8.0,71,0.00,,,-99.99,,2013-01-08 14:43:00,
2013-01-08 09:53:00,33.0,24.0,30.52,West,271,5.0,6.0,69,0.00,,,-99.99,,2013-01-08 14:53:00,
2013-01-08 10:03:00,34.0,24.0,30.53,WSW,255,6.0,7.0,67,0.00,,,-99.99,,2013-01-08 15:03:00,
2013-01-08 10:12:00,34.0,24.0,30.53,WSW,255,6.0,7.0,67,0.00,,,-99.99,,2013-01-08 15:12:00,
2013-01-08 10:22:00,35.0,25.0,30.53,NW,308,2.0,4.0,67,0.00,,,-99.99,,2013-01-08 15:22:00,
2013-01-08 10:33:00,36.0,25.0,30.54,WSW,240,0.0,3.0,65,0.00,,,-99.99,,2013-01-08 15:33:00,
2013-01-08 10:43:00,36.0,25.0,30.54,WSW,240,0.0,3.0,65,0.00,,,-99.99,,2013-01-08 15:43:00,
2013-01-08 10:53:00,39.0,25.0,30.54,SW,228,1.0,3.0,56,0.00,,,-99.99,,2013-01-08 15:53:00,
2013-01-08 11:03:00,40.0,25.0,30.54,WNW,298,1.0,6.0,54,0.00,,,-99.99,,2013-01-08 16:03:00,
2013-01-08 11:12:00,40.0,25.0,30.54,WNW,298,1.0,6.0,54,0.00,,,-99.99,,2013-01-08 16:12:00,
2013-01-08 11:23:00,40.0,26.0,30.54,NE,51,1.0,2.0,57,0.00,,,-99.99,,2013-01-08 16:23:00,
2013-01-08 11:34:00,41.0,27.0,30.54,NW,305,6.0,6.0,57,0.00,,,-99.99,,2013-01-08 16:34:00,
2013-01-08 11:42:00,41.0,27.0,30.54,NW,305,6.0,6.0,57,0.00,,,-99.99,,2013-01-08 16:42:00,
2013-01-08 11:53:00,42.0,27.0,30.53,WNW,287,3.0,6.0,55,0.00,,,-99.99,,2013-01-08 16:53:00,
2013-01-08 12:03:00,43.0,27.0,30.52,NW,314,2.0,5.0,53,0.00,,,-99.99,,2013-01-08 17:03:00,
2013-01-08 12:13:00,43.0,27.0,30.52,NW,314,2.0,5.0,53,0.00,,,-99.99,,2013-01-08 17:13:00,
2013-01-08 12:23:00,43.0,27.0,30.52,NNW,329,3.0,4.0,53,0.00,,,-99.99,,2013-01-08 17:23:00,
2013-01-08 12:33:00,43.0,27.0,30.51,WSW,250,4.0,4.0,52,0.00,,,-99.99,,2013-01-08 17:33:00,
2013-01-08 12:43:00,43.0,27.0,30.51,WSW,250,4.0,4.0,52,0.00,,,-99.99,,2013-01-08 17:43:00,
2013-01-08 12:54:00,44.0,28.0,30.51,WNW,293,7.0,9.0,53,0.00,,,-99.99,,2013-01-08 17:54:00,
2013-01-08 13:03:00,45.0,29.0,30.51,WNW,294,3.0,11.0,54,0.00,,,-99.99,,2013-01-08 18:03:00,
2013-01-08 13:13:00,45.0,29.0,30.51,WNW,294,3.0,11.0,54,0.00,,,-99.99,,2013-01-08 18:13:00,
2013-01-08 13:23:00,45.0,29.0,30.50,WNW,297,5.0,9.0,53,0.00,,,-99.99,,2013-01-08 18:23:00,
2013-01-08 13:33:00,45.0,28.0,30.50,WNW,283,5.0,8.0,51,0.00,,,-99.99,,2013-01-08 18:33:00,
2013-01-08 13:43:00,45.0,28.0,30.50,WNW,283,5.0,8.0,51,0.00,,,-99.99,,2013-01-08 18:43:00,
2013-01-08 13:53:00,45.0,27.0,30.50,NW,314,4.0,6.0,50,0.00,,,-99.99,,2013-01-08 18:53:00,
2013-01-08 14:03:00,46.0,28.0,30.50,WSW,256,3.0,7.0,49,0.00,,,-99.99,,2013-01-08 19:03:00,
2013-01-08 14:12:00,46.0,28.0,30.50,WSW,256,3.0,7.0,49,0.00,,,-99.99,,2013-01-08 19:12:00,
2013-01-08 14:23:00,46.0,28.0,30.50,West,269,6.0,6.0,50,0.00,,,-99.99,,2013-01-08 19:23:00,
2013-01-08 14:32:00,46.0,29.0,30.49,West,269,2.0,7.0,51,0.00,,,-99.99,,2013-01-08 19:32:00,
2013-01-08 14:42:00,46.0,29.0,30.49,West,269,2.0,7.0,51,0.00,,,-99.99,,2013-01-08 19:42:00,
2013-01-08 14:53:00,46.0,31.0,30.49,SSW,204,4.0,8.0,56,0.00,,,-99.99,,2013-01-08 19:53:00,
2013-01-08 15:03:00,47.0,34.0,30.49,SW,214,0.0,7.0,61,0.00,,,-99.99,,2013-01-08 20:03:00,
2013-01-08 15:12:00,47.0,34.0,30.49,SW,214,0.0,7.0,61,0.00,,,-99.99,,2013-01-08 20:12:00,
2013-01-08 15:23:00,45.0,34.0,30.49,SSE,167,3.0,4.0,66,0.00,,,-99.99,,2013-01-08 20:23:00,
2013-01-08 15:33:00,44.0,34.0,30.49,SW,217,2.0,4.0,67,0.00,,,-99.99,,2013-01-08 20:33:00,
2013-01-08 15:43:00,44.0,34.0,30.49,SW,217,2.0,4.0,67,0.00,,,-99.99,,2013-01-08 20:43:00,
2013-01-08 15:54:00,45.0,34.0,30.50,SSW,205,5.0,5.0,64,0.00,,,-99.99,,2013-01-08 20:54:00,
2013-01-08 16:03:00,45.0,34.0,30.50,SSW,205,5.0,5.0,64,0.00,,,-99.99,,2013-01-08 21:03:00,
2013-01-08 16:13:00,45.0,34.0,30.50,SSW,205,5.0,5.0,64,0.00,,,-99.99,,2013-01-08 21:13:00,
2013-01-08 16:23:00,46.0,35.0,30.50,SSW,204,3.0,5.0,65,0.00,,,-99.99,,2013-01-08 21:23:00,
2013-01-08 16:33:00,46.0,35.0,30.51,WNW,293,3.0,7.0,65,0.00,,,-99.99,,2013-01-08 21:33:00,
2013-01-08 16:43:00,46.0,35.0,30.51,WNW,293,3.0,7.0,65,0.00,,,-99.99,,2013-01-08 21:43:00,
2013-01-08 16:53:00,45.0,37.0,30.51,West,269,3.0,7.0,72,0.00,,,-99.99,,2013-01-08 21:53:00,
2013-01-08 17:03:00,44.0,37.0,30.52,WSW,238,0.0,8.0,75,0.00,,,-99.99,,2013-01-08 22:03:00,
2013-01-08 17:12:00,44.0,37.0,30.52,WSW,238,0.0,8.0,75,0.00,,,-99.99,,2013-01-08 22:12:00,
2013-01-08 17:23:00,42.0,35.0,30.50,SW,233,0.0,0.0,76,0.00,,,-99.99,,2013-01-08 22:23:00,
2013-01-08 17:33:00,42.0,36.0,30.50,South,172,1.0,2.0,80,0.00,,,-99.99,,2013-01-08 22:33:00,
2013-01-08 17:43:00,42.0,36.0,30.50,South,172,1.0,2.0,80,0.00,,,-99.99,,2013-01-08 22:43:00,
2013-01-08 17:53:00,40.0,35.0,30.52,SE,143,1.0,3.0,83,0.00,,,-99.99,,2013-01-08 22:53:00,
2013-01-08 18:02:00,39.0,35.0,30.52,SE,125,3.0,4.0,85,0.00,,,-99.99,,2013-01-08 23:02:00,
2013-01-08 18:13:00,39.0,35.0,30.52,SE,125,3.0,4.0,85,0.00,,,-99.99,,2013-01-08 23:13:00,
2013-01-08 18:22:00,39.0,35.0,30.52,South,174,2.0,3.0,86,0.00,,,-99.99,,2013-01-08 23:22:00,
2013-01-08 18:33:00,38.0,34.0,30.52,SSW,197,2.0,3.0,87,0.00,,,-99.99,,2013-01-08 23:33:00,
2013-01-08 18:43:00,38.0,34.0,30.52,SSW,197,2.0,3.0,87,0.00,,,-99.99,,2013-01-08 23:43:00,
2013-01-08 18:53:00,38.0,34.0,30.51,SE,146,2.0,3.0,87,0.00,,,-99.99,,2013-01-08 23:53:00,
2013-01-08 19:03:00,38.0,35.0,30.52,SW,225,2.0,4.0,89,0.00,,,-99.99,,2013-01-09 00:03:00,
2013-01-08 19:12:00,38.0,35.0,30.52,SW,225,2.0,4.0,89,0.00,,,-99.99,,2013-01-09 00:12:00,
2013-01-08 19:22:00,39.0,37.0,30.52,WSW,256,7.0,8.0,91,0.00,,,-99.99,,2013-01-09 00:22:00,
2013-01-08 19:33:00,38.0,36.0,30.52,SSW,198,2.0,9.0,91,0.00,,,-99.99,,2013-01-09 00:33:00,
2013-01-08 19:42:00,38.0,36.0,30.52,SSW,198,2.0,9.0,91,0.00,,,-99.99,,2013-01-09 00:42:00,
2013-01-08 19:53:00,37.0,35.0,30.53,SSE,149,2.0,6.0,93,0.00,,,-99.99,,2013-01-09 00:53:00,
2013-01-08 20:02:00,36.0,34.0,30.53,SSE,160,3.0,4.0,94,0.00,,,-99.99,,2013-01-09 01:02:00,
2013-01-08 20:12:00,36.0,34.0,30.53,SSE,160,3.0,4.0,94,0.00,,,-99.99,,2013-01-09 01:12:00,
2013-01-08 20:22:00,34.0,33.0,30.53,WNW,284,0.0,5.0,95,0.00,,,-99.99,,2013-01-09 01:22:00,
2013-01-08 20:33:00,35.0,34.0,30.54,SSW,203,5.0,8.0,97,0.00,,,-99.99,,2013-01-09 01:33:00,
2013-01-08 20:42:00,35.0,34.0,30.54,SSW,203,5.0,8.0,97,0.00,,,-99.99,,2013-01-09 01:42:00,
2013-01-08 20:52:00,37.0,36.0,30.54,SW,231,3.0,6.0,96,0.00,,,-99.99,,2013-01-09 01:52:00,
2013-01-08 21:02:00,37.0,36.0,30.54,SSW,207,4.0,7.0,96,0.00,,,-99.99,,2013-01-09 02:02:00,
2013-01-08 21:12:00,37.0,36.0,30.54,SSW,207,4.0,7.0,96,0.00,,,-99.99,,2013-01-09 02:12:00,
2013-01-08 21:22:00,38.0,37.0,30.54,SW,224,5.0,7.0,96,0.00,,,-99.99,,2013-01-09 02:22:00,
2013-01-08 21:33:00,38.0,37.0,30.54,SSW,193,5.0,6.0,96,0.00,,,-99.99,,2013-01-09 02:33:00,
2013-01-08 21:43:00,38.0,37.0,30.54,SSW,193,5.0,6.0,96,0.00,,,-99.99,,2013-01-09 02:43:00,
2013-01-08 21:53:00,38.0,37.0,30.53,WNW,300,4.0,9.0,96,0.00,,,-99.99,,2013-01-09 02:53:00,
2013-01-08 22:03:00,39.0,38.0,30.54,West,274,11.0,11.0,96,0.00,,,-99.99,,2013-01-09 03:03:00,
2013-01-08 22:12:00,39.0,38.0,30.54,West,274,11.0,11.0,96,0.00,,,-99.99,,2013-01-09 03:12:00,
2013-01-08 22:22:00,39.0,38.0,30.53,West,266,6.0,10.0,96,0.00,,,-99.99,,2013-01-09 03:22:00,
2013-01-08 22:33:00,39.0,38.0,30.54,NW,304,6.0,9.0,95,0.00,,,-99.99,,2013-01-09 03:33:00,
2013-01-08 22:43:00,39.0,38.0,30.54,NW,304,6.0,9.0,95,0.00,,,-99.99,,2013-01-09 03:43:00,
2013-01-08 22:53:00,40.0,39.0,30.54,WSW,257,9.0,11.0,96,0.00,,,-99.99,,2013-01-09 03:53:00,
2013-01-08 23:02:00,40.0,39.0,30.55,SSW,205,6.0,9.0,96,0.00,,,-99.99,,2013-01-09 04:02:00,
2013-01-08 23:12:00,40.0,39.0,30.55,SSW,205,6.0,9.0,96,0.00,,,-99.99,,2013-01-09 04:12:00,
2013-01-08 23:22:00,39.0,38.0,30.55,West,271,7.0,9.0,97,0.00,,,-99.99,,2013-01-09 04:22:00,
2013-01-08 23:32:00,39.0,38.0,30.55,SSW,208,5.0,8.0,97,0.00,,,-99.99,,2013-01-09 04:32:00,
2013-01-08 23:42:00,39.0,38.0,30.55,SW,224,5.0,13.0,98,0.00,,,-99.99,,2013-01-09 04:42:00,
2013-01-08 23:52:00,39.0,38.0,30.55,SW,224,5.0,13.0,98,0.00,,,-99.99,,2013-01-09 04:52:00,